Tracking 19484 objects as of 20-Jan-2019
HD Live streaming from Space Station
objects crossing your sky now

FENGYUN 1C DEB

Track FENGYUN 1C DEB now!
10-day predictions


NORAD ID: 30357
Int'l Code: 1999-025ABU
Perigee: 849.8 km
Apogee: 923.2 km
Inclination: 99.1 °
Period: 102.6 minutes
Semi major axis: 7257 km
RCS: 0.042 m2 (small)
Launch date: May 10, 1999
Source: People's Republic of China (PRC)
Launch site: Taiyaun Space Center, China (TSC)

Note: This is SATELLITE DEBRIS
aabbcc
Your satellite tracking list
Your tracking list is empty




NASA's NSSDC Master Catalog

Two Line Element Set (TLE):
1 30357U 99025ABU 19019.07844552  .00000347  00000-0  24398-3 0  9991
2 30357  99.1056  48.1284 0050614 151.9067 230.6989 14.04176382614455
Source of the keplerian elements: AFSPC